Total_Precipitation_Accumulation
0.00 0.00 0.00 0.00 0.01 0.01 0.01 0.04 0.11 0.15 0.13 0.20 0.30 0.50 0.64 0.63 0.81 1.20 1.43 1.44 1.42 1.72 2.21 2.57 2.81 2.99 3.31 3.48 3.61 3.56 3.71 4.04 4.33 4.16 3.78 3.53 3.19 2.94 2.73 2.49 2.33 2.31 2.29 2.43
0.00 0.01 0.00 0.01 0.01 0.01 0.02 0.06 0.14 0.16 0.15 0.24 0.38 0.60 0.76 0.85 1.10 1.27 1.21 1.22 1.39 1.76 2.25 2.61 2.85 2.97 3.21 3.52 3.93 3.99 4.10 4.40 4.50 4.28 4.11 3.91 3.69 3.27 3.13 2.98 2.73 2.38 2.22 2.30
0.01 0.01 0.01 0.01 0.01 0.02 0.04 0.07 0.13 0.14 0.21 0.34 0.43 0.81 0.98 1.10 1.24 1.24 1.21 1.42 1.46 1.55 1.95 2.22 2.30 2.48 2.65 2.82 3.06 3.31 3.74 4.21 4.29 4.30 4.22 4.14 4.07 3.52 3.25 3.05 2.76 2.45 2.24 2.17
0.01 0.01 0.01 0.02 0.02 0.02 0.06 0.06 0.06 0.10 0.19 0.45 0.51 1.03 1.25 1.44 1.53 1.34 1.30 1.27 1.29 1.53 1.86 1.88 1.75 1.90 2.14 2.14 2.42 2.78 3.20 3.51 3.69 3.81 3.76 3.72 3.56 3.30 3.17 2.99 2.60 2.34 2.17 2.11
0.02 0.02 0.02 0.04 0.03 0.03 0.05 0.04 0.07 0.11 0.19 0.40 0.46 0.80 1.29 1.66 1.78 1.40 1.27 1.18 1.28 1.50 1.56 1.55 1.57 1.67 1.83 1.99 2.29 2.55 2.82 3.07 3.22 3.27 3.28 3.29 3.13 2.96 2.87 2.72 2.44 2.20 2.06 1.95
0.02 0.04 0.04 0.03 0.03 0.04 0.04 0.07 0.13 0.20 0.36 0.71 0.61 0.71 1.21 1.55 1.41 1.21 1.16 1.00 1.09 1.32 1.41 1.47 1.54 1.66 1.78 2.06 2.38 2.61 2.81 3.01 3.05 2.83 2.70 2.65 2.65 2.61 2.49 2.30 2.11 1.90 1.80 1.69
0.13 0.10 0.07 0.05 0.06 0.07 0.08 0.17 0.56 0.92 1.24 1.13 0.71 0.81 1.39 1.26 0.91 0.84 0.93 0.92 0.93 1.00 1.15 1.26 1.43 1.64 1.80 1.89 1.93 2.24 2.59 2.80 2.75 2.52 2.33 2.21 2.27 2.30 2.20 2.03 1.93 1.81 1.61 1.47
0.28 0.25 0.13 0.09 0.12 0.13 0.13 0.24 0.69 0.95 0.99 0.97 0.77 1.17 1.60 1.20 0.81 0.67 0.77 0.79 0.69 0.65 0.63 0.72 0.89 0.99 1.07 1.09 1.11 1.23 1.45 1.67 1.77 1.69 1.68 1.68 1.71 1.73 1.71 1.78 1.67 1.64 1.51 1.37
0.16 0.15 0.10 0.12 0.17 0.18 0.24 0.28 0.29 0.49 0.68 1.01 1.02 1.19 1.21 0.96 0.78 0.73 0.83 0.76 0.60 0.54 0.49 0.56 0.66 0.66 0.74 0.76 0.80 0.92 1.10 1.26 1.32 1.32 1.32 1.35 1.34 1.39 1.42 1.42 1.37 1.39 1.37 1.29
0.10 0.10 0.10 0.11 0.15 0.18 0.20 0.28 0.42 0.67 0.90 1.02 1.09 1.36 1.49 1.32 1.08 0.96 0.92 0.76 0.57 0.47 0.44 0.48 0.55 0.55 0.65 0.77 0.90 1.05 1.14 1.16 1.14 1.16 1.15 1.07 1.17 1.19 1.23 1.18 1.11 1.10 1.11 1.13
0.08 0.09 0.12 0.18 0.22 0.22 0.23 0.30 0.45 0.62 0.69 0.87 1.19 1.27 1.00 0.94 0.97 1.05 1.05 0.87 0.60 0.45 0.41 0.43 0.50 0.51 0.58 0.70 0.82 0.92 1.01 1.11 1.08 1.04 1.07 1.11 1.12 1.12 1.10 1.06 0.98 1.01 1.03 1.02
0.09 0.11 0.16 0.24 0.21 0.16 0.22 0.32 0.47 0.70 0.76 0.80 0.93 0.99 0.58 0.57 0.68 0.80 0.81 0.65 0.47 0.39 0.37 0.40 0.43 0.42 0.52 0.65 0.73 0.74 0.79 0.94 0.96 0.94 1.01 1.11 1.11 1.06 1.00 0.93 0.88 0.92 0.95 0.96
0.15 0.15 0.27 0.53 0.49 0.26 0.25 0.25 0.35 0.49 0.60 0.68 0.85 0.95 0.57 0.54 0.68 0.74 0.71 0.56 0.47 0.43 0.43 0.47 0.44 0.41 0.47 0.57 0.65 0.66 0.71 0.82 0.91 0.93 0.99 1.02 1.04 1.02 0.93 0.83 0.82 0.82 0.83 0.87
0.13 0.14 0.24 0.61 0.65 0.43 0.31 0.27 0.31 0.43 0.54 0.51 0.49 0.65 0.63 0.62 0.76 0.75 0.71 0.60 0.56 0.46 0.43 0.48 0.53 0.47 0.46 0.50 0.54 0.56 0.67 0.81 0.83 0.84 0.88 0.87 0.84 0.85 0.87 0.84 0.79 0.75 0.77 0.81
0.13 0.16 0.17 0.26 0.34 0.38 0.37 0.30 0.26 0.29 0.32 0.42 0.43 0.57 0.69 0.69 0.73 0.65 0.59 0.57 0.57 0.48 0.41 0.43 0.42 0.41 0.41 0.42 0.46 0.50 0.52 0.62 0.72 0.79 0.81 0.80 0.82 0.81 0.79 0.76 0.71 0.70 0.69 0.66
0.19 0.23 0.22 0.29 0.36 0.38 0.39 0.35 0.28 0.24 0.25 0.29 0.36 0.49 0.53 0.60 0.61 0.59 0.51 0.48 0.52 0.39 0.31 0.33 0.29 0.25 0.28 0.33 0.36 0.42 0.44 0.50 0.59 0.62 0.64 0.75 0.82 0.79 0.76 0.69 0.64 0.63 0.65 0.70
0.29 0.32 0.32 0.36 0.44 0.52 0.53 0.34 0.30 0.31 0.28 0.38 0.57 0.60 0.53 0.69 0.63 0.52 0.46 0.40 0.34 0.31 0.29 0.24 0.20 0.19 0.24 0.28 0.34 0.38 0.44 0.47 0.52 0.56 0.58 0.60 0.68 0.74 0.72 0.64 0.61 0.59 0.63 0.70
0.35 0.49 0.51 0.48 0.64 0.78 0.60 0.33 0.28 0.33 0.30 0.30 0.41 0.43 0.44 0.67 0.64 0.49 0.40 0.37 0.30 0.29 0.28 0.23 0.22 0.21 0.26 0.30 0.34 0.43 0.49 0.50 0.53 0.60 0.61 0.59 0.60 0.67 0.71 0.68 0.65 0.67 0.70 0.71
0.30 0.47 0.54 0.59 0.73 0.73 0.57 0.44 0.39 0.44 0.49 0.32 0.35 0.39 0.40 0.46 0.52 0.54 0.39 0.39 0.41 0.34 0.33 0.28 0.24 0.23 0.30 0.33 0.36 0.42 0.46 0.51 0.57 0.61 0.63 0.61 0.61 0.66 0.71 0.72 0.76 0.81 0.85 0.78
0.39 0.50 0.63 0.60 0.74 0.89 0.72 0.55 0.45 0.50 0.85 0.54 0.37 0.34 0.37 0.42 0.63 0.70 0.48 0.37 0.34 0.31 0.34 0.35 0.31 0.33 0.35 0.37 0.44 0.52 0.56 0.59 0.64 0.64 0.63 0.62 0.67 0.73 0.77 0.85 0.98 1.05 1.07 1.00
0.78 0.80 0.78 0.72 0.77 0.78 0.69 0.54 0.48 0.84 1.03 0.60 0.47 0.42 0.44 0.46 0.55 0.57 0.47 0.39 0.34 0.35 0.39 0.46 0.51 0.57 0.56 0.49 0.58 0.67 0.75 0.75 0.74 0.79 0.81 0.80 0.84 0.94 1.02 1.16 1.27 1.33 1.29 1.32
1.00 1.01 0.96 0.94 1.07 1.07 0.79 0.75 0.87 0.96 0.87 0.68 0.56 0.53 0.48 0.46 0.43 0.45 0.44 0.43 0.38 0.38 0.43 0.46 0.50 0.63 0.69 0.68 0.78 0.87 0.90 0.91 0.97 1.02 1.03 1.05 1.13 1.05 1.08 1.31 1.39 1.49 1.57 1.54
0.97 1.01 1.03 1.08 1.11 0.98 0.88 0.98 1.01 0.90 0.93 0.86 0.69 0.63 0.57 0.55 0.45 0.40 0.40 0.39 0.40 0.39 0.41 0.46 0.49 0.58 0.69 0.79 0.91 1.08 1.14 1.10 1.14 1.20 1.25 1.30 1.35 1.39 1.42 1.54 1.60 1.62 1.63 1.60
1.05 0.93 1.06 1.19 1.22 1.13 1.12 1.08 1.06 1.01 0.98 0.87 0.69 0.65 0.59 0.55 0.47 0.45 0.43 0.42 0.43 0.41 0.39 0.40 0.47 0.55 0.69 0.87 1.06 1.20 1.24 1.19 1.26 1.36 1.39 1.51 1.65 1.68 1.70 1.79 1.79 1.76 1.73 1.70
1.17 1.12 1.35 1.48 1.45 1.46 1.47 1.29 1.14 1.03 0.88 0.77 0.64 0.59 0.54 0.51 0.48 0.44 0.43 0.44 0.41 0.36 0.36 0.38 0.47 0.60 0.67 0.75 0.92 1.10 1.21 1.28 1.40 1.50 1.55 1.69 1.83 1.92 1.96 1.84 1.82 1.82 1.85 1.79
1.20 1.25 1.43 1.57 1.43 1.39 1.45 1.30 1.06 1.02 1.00 0.88 0.81 0.75 0.64 0.57 0.56 0.48 0.42 0.38 0.35 0.33 0.35 0.42 0.47 0.57 0.65 0.70 0.82 1.00 1.19 1.33 1.52 1.58 1.63 1.74 1.82 1.92 1.93 1.91 1.80 1.67 1.59 1.53